[[{"header":{"parameterUnit":"m.s-1","parameterCategory":1,"la1":30.2991,"la2":30.254,"lo1":-89.0895,"lo2":-89.0444,"dy":0.0017,"dx":0.0017,"nx":28,"ny":28,"refTime":"2025-03-26T03:00:00:Z","depth":0,"parameterNumber":2,"parameterNumberName":"U-component_of_WINDS"},"data":[0,0,0,0,0,0,0,0,0,0,0,0,0,0,0,0,0,0,0,0,0,0,0,0,0,0,0,0,0,0,0,0,0,0,0,0,0,0,0,0,0,0,0,0,0,0,0,0,0,0,0,0,0,0,0,0,0,0,0.9118,0.9119,0,0.9225,0.9226,0.9227,0.9243,0.9243,0.9242,0.9241,0.9352,0.9356,0.936,0,0,0,0,0,0,0,0,0,0,0,0,0,0.8929,0.8933,0.9118,0.9119,0.912,0.9225,0.9226,0.9228,0.9244,0.9242,0.9241,0.924,0.9351,0.9356,0.936,0,0,0,0,0,0,0,0,0,0,0,0,0,0.9021,0.8934,0.9118,0.9141,0.9144,0.9224,0.9226,0.9228,0.9244,0.9242,0.9241,0.924,0.935,0.9355,0.9361,0.9426,0,0,0.9379,0.9381,0,0,0,0,0,0,0,0,0.9016,0.9028,0.9136,0.914,0.9143,0.9219,0.9201,0.9294,0.9244,0.9206,0.9241,0.9239,0.9309,0.9318,0.9342,0.9431,0.9436,0.9379,0.9383,0.9385,0.9387,0,0,0,0,0,0,0,0.901,0.9024,0.916,0.9138,0.9142,0.9147,0.9158,0.9218,0.9265,0.9209,0.9211,0.9223,0.9311,0.9336,0.9344,0.9438,0.9379,0.9384,0.9388,0.939,0.9586,0.9588,0,0,0,0,0,0,0.8999,0.9018,0.9157,0.9163,0.9075,0.9151,0.9164,0.9196,0.9264,0.9273,0.9224,0.9223,0.9327,0.9338,0.9348,0.9429,0.9385,0.9391,0.9394,0.9584,0.9586,0.9588,0,0,0,0,0,0,0.8995,0.9011,0.9152,0.9091,0.911,0.9156,0.9192,0.9199,0.9224,0.9275,0.9284,0.9241,0.9326,0.934,0.9406,0.9433,0.9393,0.9399,0.9582,0.9585,0.9587,0.959,0,0,0,0,0,0,0.8989,0.9009,0.9034,0.9092,0.9113,0.9208,0.9194,0.9202,0.9234,0.9234,0.9293,0.9302,0.9326,0.9398,0.9412,0.944,0.9403,0.958,0.9583,0.9586,0.9588,0.9593,0.9597,0,0,0,0,0,0.8982,0.9031,0.9035,0.9052,0.9144,0.9209,0.9222,0.9248,0.9236,0.9261,0.9294,0.93,0.9428,0.9404,0.9421,0.9451,0.9578,0.9582,0.9586,0.9586,0.9592,0.9597,0,0,0,0,0,0,0.8976,0.9039,0.9044,0.9113,0.9156,0.9212,0.9245,0.9253,0.93,0.9298,0.933,0.9343,0.9408,0.9436,0.9409,0.9518,0.9502,0.951,0.9497,0.9503,0.9507,0.9499,0.9408,0,0,0,0,0,0.8982,0.9029,0.9082,0.9137,0.9159,0.9198,0.9227,0.9244,0.929,0.9308,0.9346,0.939,0.9441,0.9473,0.9522,0.9592,0.9606,0.9622,0.9626,0.9629,0.9635,0.9675,0.9682,0.9601,0.9601,0.9601,0,0,0.8996,0.9036,0.9064,0.9137,0.9172,0.9221,0.9213,0.9265,0.9301,0.9316,0.938,0.941,0.9462,0.953,0.9562,0.9556,0.9661,0.9634,0.9636,0.9641,0.9679,0.9687,0.9694,0.9603,0.9603,0.9603,0,0,0.9046,0.9081,0.9131,0.9167,0.922,0.9245,0.9257,0.9313,0.9333,0.9398,0.941,0.9454,0.954,0.9577,0.9607,0.9671,0.9678,0.9686,0.9709,0.9747,0.9753,0.9759,0.9783,0.979,0.9692,0.9692,0.9692,0,0.9057,0.913,0.9156,0.9207,0.9239,0.9254,0.9306,0.9339,0.9405,0.9427,0.9419,0.9527,0.9564,0.9641,0.9656,0.968,0.9695,0.968,0.975,0.9756,0.9762,0.9785,0.9793,0.9693,0.9693,0.9693,0.9693,0,0.914,0.9191,0.9225,0.9288,0.9324,0.9375,0.941,0.9443,0.9457,0.9484,0.955,0.9594,0.9652,0.9672,0.9686,0.9752,0.9746,0.9744,0.9729,0.977,0.9792,0.9801,0.9694,0.9693,0.9693,0.9693,0,0,0.9189,0.9266,0.9278,0.9307,0.9367,0.9407,0.9459,0.9515,0.9544,0.9589,0.9634,0.9706,0.9704,0.9738,0.9757,0.979,0.9839,0.9784,0.9786,0.9793,0.9914,0.9915,0.9925,0.9844,0.9845,0.9847,0.991,0,0.9246,0.9338,0.9364,0.9442,0.949,0.9505,0.955,0.9592,0.9619,0.9663,0.9693,0.9744,0.9738,0.9758,0.9792,0.9825,0.9863,0.9821,0.9886,0.9888,0.9873,0.9936,0.9938,0.9995,0.9918,0.992,0.9921,0,0.9325,0.9371,0.9454,0.9508,0.9529,0.9569,0.9623,0.9665,0.9714,0.9731,0.9769,0.9784,0.9839,0.9821,0.9899,0.9869,0.9898,0.9918,0.9921,0.9928,0.9907,0.9945,1.0014,1.0023,0.9934,0.9933,0.9932,0,0.9352,0.9435,0.9496,0.952,0.9585,0.9613,0.9641,0.9688,0.972,0.9768,0.9789,0.9843,0.9872,0.9914,0.9943,0.9927,1.0018,1.0003,1.0035,1.0034,1.0053,1.0051,1.0127,1.0071,1.0071,1.0071,1.007,0,0.9413,0.9463,0.9509,0.9546,0.9603,0.9632,0.9688,0.9717,0.9759,0.9802,0.9819,0.986,0.9897,0.9943,0.9966,1.0027,1.004,1.0056,1.0062,1.0054,1.0052,1.0073,1.007,1.0073,1.0072,1.0072,1.0072,0,0.9452,0.9485,0.9552,0.9608,0.9623,0.9663,0.9711,0.9748,0.9775,0.983,0.9845,0.9888,0.9943,0.9977,1.0046,1.0062,1.0129,1.0133,1.0113,1.0115,1.0146,1.0142,1.0238,1.0252,1.0186,1.0186,1.0187,0,0.9489,0.9528,0.9588,0.9618,0.9647,0.9695,0.9728,0.9759,0.9793,0.9851,0.9881,0.9937,0.9983,1.007,1.0109,1.0162,1.0168,1.0198,1.0176,1.0168,1.0169,1.0166,1.017,1.0201,1.0202,1.0202,1.0203,0,0.9551,0.9565,0.9612,0.9665,0.9704,0.9747,0.979,0.9814,0.9852,0.989,0.9946,0.9982,1.0053,1.0108,1.0165,1.0195,1.0206,1.0209,1.0219,1.0213,1.0199,1.0207,1.0123,1.0207,1.0206,1.0206,1.0206,1.0206,0.959,0.9626,0.9673,0.9725,0.9761,0.9801,0.9838,0.9871,0.9918,0.9978,0.9993,1.0052,1.01,1.0177,1.0209,1.0256,1.0251,1.0266,1.027,1.0273,1.0274,1.0191,1.0266,1.0266,1.0266,1.0266,1.0266,0,0.9653,0.9684,0.9732,0.9791,0.9832,0.9838,0.9886,0.992,0.9972,1.0015,1.0061,1.0125,1.0179,1.0222,1.0277,1.0307,1.0313,1.032,1.0319,1.0326,1.0274,1.026,1.0315,1.0314,1.0314,1.0314,1.0314,1.0314,0.969,0.975,0.9771,0.9849,0.9881,0.9938,0.9965,1.0003,1.0037,1.0109,1.0154,1.0181,1.0224,1.0283,1.0333,1.0344,1.0364,1.0371,1.0383,1.0334,1.0329,1.0324,1.0311,1.0375,1.0375,1.043,1.0431,1.0431]},{"header":{"parameterUnit":"m.s-1","parameterCategory":1,"la1":30.2991,"la2":30.254,"lo1":-89.0895,"lo2":-89.0444,"dy":0.0017,"dx":0.0017,"nx":28,"ny":28,"refTime":"2025-03-26T03:00:00:Z","depth":0,"parameterNumber":3,"parameterNumberName":"V-component_of_WINDS"},"data":[0,0,0,0,0,0,0,0,0,0,0,0,0,0,0,0,0,0,0,0,0,0,0,0,0,0,0,0,0,0,0,0,0,0,0,0,0,0,0,0,0,0,0,0,0,0,0,0,0,0,0,0,0,0,0,0,0,0,4.2808,4.2808,0,4.2765,4.2765,4.2764,4.2691,4.2689,4.2688,4.2687,4.2644,4.2644,4.2644,0,0,0,0,0,0,0,0,0,0,0,0,0,4.2827,4.2827,4.2808,4.2808,4.2807,4.2765,4.2765,4.2764,4.2691,4.2689,4.2688,4.2686,4.2644,4.2644,4.2644,0,0,0,0,0,0,0,0,0,0,0,0,0,4.2805,4.2827,4.2808,4.2766,4.2761,4.2765,4.2765,4.2764,4.2691,4.2689,4.2687,4.2685,4.2644,4.2644,4.2644,4.2687,0,0,4.2645,4.2645,0,0,0,0,0,0,0,0,4.2807,4.2805,4.2772,4.2769,4.2764,4.2731,4.2756,4.2738,4.2692,4.2718,4.2687,4.2684,4.2675,4.2672,4.2669,4.2685,4.2683,4.2645,4.2645,4.2645,4.2645,0,0,0,0,0,0,0,4.2808,4.2806,4.2791,4.2772,4.2767,4.2749,4.2743,4.2752,4.2709,4.2716,4.271,4.2706,4.2672,4.2669,4.2667,4.2683,4.2645,4.2645,4.2645,4.2645,4.2731,4.2733,0,0,0,0,0,0,4.2816,4.2808,4.2793,4.279,4.278,4.275,4.2744,4.2744,4.2708,4.2701,4.2708,4.2703,4.2669,4.2667,4.2665,4.2713,4.2645,4.2645,4.2645,4.2729,4.2731,4.2734,0,0,0,0,0,0,4.2817,4.2815,4.2794,4.2797,4.2793,4.2752,4.2752,4.2744,4.2741,4.2702,4.2694,4.2712,4.2668,4.2665,4.2682,4.271,4.2645,4.2646,4.2726,4.273,4.2732,4.2808,0,0,0,0,0,0,4.2818,4.2816,4.2832,4.2798,4.2793,4.2812,4.2754,4.2745,4.2741,4.2734,4.2705,4.2698,4.2666,4.2682,4.2682,4.2709,4.2646,4.2723,4.2728,4.2731,4.2803,4.2814,4.2823,0,0,0,0,0,4.2818,4.2855,4.2833,4.2832,4.2812,4.2814,4.2811,4.2773,4.2744,4.2759,4.2734,4.2699,4.2707,4.2684,4.2684,4.2712,4.2722,4.2727,4.2731,4.2799,4.2812,4.2823,0,0,0,0,0,0,4.2894,4.285,4.2825,4.2852,4.2837,4.2801,4.282,4.2788,4.2781,4.2775,4.2729,4.2723,4.2746,4.273,4.2706,4.2751,4.2709,4.2714,4.276,4.2772,4.2782,4.2785,4.2646,0,0,0,0,0,4.2914,4.2918,4.2879,4.2907,4.2901,4.2862,4.2861,4.2833,4.2816,4.2809,4.2785,4.277,4.2769,4.277,4.2767,4.28,4.2793,4.2819,4.2829,4.2837,4.2842,4.2859,4.287,4.2749,4.2749,4.2749,0,0,4.2954,4.2931,4.2937,4.2922,4.2907,4.2912,4.2857,4.2865,4.2869,4.281,4.2825,4.2807,4.2787,4.2812,4.2822,4.28,4.2874,4.2843,4.285,4.2851,4.2865,4.2876,4.2886,4.2753,4.2752,4.2752,0,0,4.3032,4.3015,4.3036,4.3022,4.2999,4.2973,4.2978,4.2947,4.2933,4.2946,4.2902,4.2906,4.2905,4.2892,4.2886,4.2958,4.2925,4.2958,4.301,4.3026,4.3036,4.3044,4.307,4.308,4.2963,4.2963,4.2964,0,4.3086,4.3092,4.305,4.3062,4.3056,4.3002,4.3023,4.3012,4.299,4.2988,4.2963,4.2961,4.2943,4.2965,4.2982,4.2979,4.2983,4.2962,4.3038,4.3046,4.3053,4.3077,4.3086,4.2968,4.2967,4.2967,4.2966,0,4.316,4.3165,4.3184,4.3164,4.3161,4.3177,4.3137,4.3139,4.3111,4.3088,4.3102,4.3079,4.307,4.3073,4.3046,4.3091,4.3078,4.3046,4.3003,4.3069,4.3091,4.31,4.2974,4.2972,4.2971,4.297,0,0,4.3284,4.324,4.3248,4.3238,4.3209,4.3212,4.3226,4.3217,4.3219,4.3206,4.3216,4.3216,4.3187,4.3179,4.315,4.3165,4.3223,4.3131,4.313,4.3149,4.327,4.3295,4.3306,4.32,4.3202,4.3203,4.3272,0,4.3356,4.3376,4.3338,4.3368,4.3372,4.3321,4.3332,4.3316,4.3294,4.3294,4.327,4.3271,4.3232,4.3227,4.3239,4.3214,4.3247,4.3208,4.321,4.321,4.3217,4.3317,4.3343,4.3409,4.328,4.3282,4.3283,0,4.3442,4.3433,4.3462,4.3431,4.3432,4.3443,4.3431,4.3432,4.3413,4.3395,4.3387,4.3353,4.3364,4.3322,4.3336,4.331,4.3308,4.3296,4.3298,4.3297,4.3251,4.332,4.343,4.344,4.3296,4.3295,4.3294,0,4.353,4.3525,4.3542,4.3535,4.3499,4.3508,4.3494,4.3472,4.3469,4.3458,4.3456,4.3447,4.3443,4.3437,4.3401,4.3374,4.342,4.3375,4.3406,4.3407,4.3419,4.3419,4.3531,4.3417,4.3417,4.3417,4.3417,0,4.3615,4.3635,4.3581,4.3591,4.3612,4.3569,4.3591,4.3571,4.3552,4.3558,4.3513,4.3519,4.3471,4.3472,4.3444,4.346,4.3459,4.3445,4.3438,4.345,4.3452,4.3449,4.3443,4.3419,4.3419,4.3418,4.3418,0,4.3717,4.3681,4.3696,4.3661,4.3653,4.367,4.3639,4.3648,4.3622,4.363,4.363,4.359,4.3589,4.3553,4.3544,4.3525,4.3553,4.3536,4.356,4.3555,4.3588,4.3586,4.3703,4.3716,4.3594,4.3595,4.3596,0,4.3773,4.3787,4.3753,4.3754,4.3742,4.3743,4.3739,4.3697,4.3695,4.3673,4.3684,4.3679,4.3673,4.3674,4.3644,4.3637,4.3621,4.3662,4.362,4.3631,4.3622,4.3622,4.3623,4.3672,4.3673,4.3674,4.3675,0,4.3877,4.3859,4.3855,4.3845,4.3842,4.3833,4.382,4.3823,4.3776,4.3776,4.3775,4.377,4.3761,4.3757,4.3744,4.3729,4.3695,4.3689,4.3696,4.3709,4.3722,4.3715,4.3585,4.3687,4.3685,4.3685,4.3684,4.3684,4.3958,4.3968,4.3946,4.3943,4.3929,4.3919,4.3925,4.39,4.3897,4.3887,4.3861,4.3864,4.3843,4.3822,4.381,4.3811,4.3791,4.3801,4.3803,4.3807,4.3813,4.3721,4.3809,4.3809,4.3808,4.3808,4.3808,0,4.406,4.4043,4.4041,4.4024,4.4023,4.399,4.3974,4.3975,4.3977,4.396,4.3955,4.3953,4.3949,4.3919,4.3911,4.3917,4.3901,4.3917,4.3916,4.3913,4.3832,4.3827,4.393,4.393,4.393,4.393,4.393,4.393,4.4112,4.4128,4.4107,4.4115,4.4098,4.4099,4.4093,4.4083,4.407,4.4069,4.4065,4.4045,4.4023,4.4013,4.4008,4.3999,4.3998,4.4019,4.4006,4.3931,4.3919,4.3908,4.3903,4.4019,4.402,4.4086,4.4087,4.4087]}]]